Wind_Speed
36 36 36 35 34 32 30 28 27 25 24 23 21 20 18 15 14 14 14 14 14 13 13 13 13 12 12 13 14 13 11 10 9 9 10 12 12 13 13 13 12 12
38 38 38 37 36 34 32 31 29 27 26 24 22 21 20 17 16 15 14 13 14 14 14 14 13 14 13 13 14 14 13 12 11 11 11 11 11 12 13 12 12 12
41 40 39 39 38 37 35 33 31 29 27 25 23 22 21 19 17 15 14 13 13 15 16 16 15 15 15 14 15 14 13 13 12 12 12 11 11 11 12 14 14 14
42 42 41 40 39 38 37 35 34 31 29 27 25 23 22 20 18 17 16 15 14 14 16 18 18 17 16 16 16 15 13 13 12 13 12 12 11 11 12 15 17 16
43 43 43 42 41 40 39 38 36 34 32 29 27 26 25 23 21 20 18 17 16 15 15 17 19 19 18 17 17 16 14 13 13 13 13 12 12 12 12 16 19 18
42 43 43 43 43 42 41 40 38 36 34 32 30 29 28 27 25 24 22 20 19 18 17 17 18 20 20 19 18 17 16 15 14 15 15 14 13 13 13 15 18 19
41 42 43 44 44 44 43 42 40 38 37 35 33 32 30 30 28 27 25 24 22 21 21 19 19 19 20 21 21 20 18 17 17 16 16 15 15 15 15 15 17 18
41 41 42 43 44 46 46 45 43 41 40 39 38 36 34 33 31 30 28 27 26 24 23 22 21 21 21 21 22 21 20 19 19 18 18 17 17 17 17 16 17 17
41 41 41 42 43 45 46 47 46 44 43 43 41 39 38 36 35 33 32 30 29 28 26 25 24 23 23 23 22 22 22 21 21 21 20 19 18 18 18 17 18 18
43 42 41 41 42 44 45 46 47 46 45 45 44 43 42 40 38 37 36 34 32 31 29 27 26 25 25 25 24 23 23 22 22 23 22 21 20 20 19 19 19 19
43 42 42 41 41 42 43 45 46 46 46 46 45 45 44 42 41 40 39 37 35 33 32 30 28 27 27 26 26 25 24 24 23 23 23 23 22 21 21 20 21 21
44 43 42 41 40 40 41 43 44 45 46 46 45 45 44 43 42 42 40 39 37 35 33 32 30 29 28 27 26 26 26 26 25 25 24 24 23 22 22 21 21 21
45 44 42 40 38 38 38 40 42 43 44 45 45 44 44 43 43 42 41 39 38 37 35 33 32 30 29 28 28 27 27 27 27 27 26 25 24 23 22 22 22 22
45 44 42 40 38 37 37 39 40 41 42 42 43 43 43 43 42 41 40 39 38 37 35 34 33 32 31 29 29 28 27 27 28 28 28 27 25 24 23 22 22 22
46 44 43 42 40 39 38 38 39 40 40 40 41 42 42 42 41 41 40 40 39 37 36 35 34 33 32 30 29 28 27 27 27 28 29 29 28 26 25 24 23 22
46 45 44 43 42 41 39 39 38 38 39 39 40 40 40 40 40 41 41 40 39 38 37 35 34 33 32 30 30 29 28 27 27 27 28 29 29 28 27 25 24 23
47 46 45 44 43 42 41 39 39 38 38 38 38 38 39 39 40 40 40 40 39 39 37 36 35 33 31 31 30 30 29 29 28 27 27 28 29 29 28 26 25 24
47 46 45 45 43 42 41 40 39 39 39 38 38 37 37 38 39 39 40 39 39 39 38 37 35 33 31 31 31 31 30 30 29 29 28 28 29 29 28 27 26 26
46 46 46 45 43 41 40 40 40 40 40 39 38 37 37 37 38 38 39 39 39 38 38 37 35 33 31 31 31 31 31 31 31 30 30 29 29 29 29 29 28 27
45 46 45 44 43 41 40 40 40 40 40 39 38 38 38 38 37 38 38 38 38 38 38 37 36 33 32 31 31 31 30 31 31 31 31 30 30 30 30 30 29 28
45 45 44 43 42 40 40 40 40 39 38 38 38 38 39 38 38 38 38 38 38 38 38 38 36 33 32 32 31 31 31 31 31 32 32 31 31 31 31 30 29 29
43 44 43 42 41 41 41 40 39 39 37 36 37 37 38 38 38 38 38 38 38 38 38 38 36 34 33 32 32 31 32 32 32 32 32 32 31 31 31 30 30 29
40 43 43 42 41 41 41 40 39 37 36 35 35 36 36 37 37 38 38 38 38 38 38 38 36 34 33 33 32 32 33 33 33 32 32 32 31 31 31 31 30 30
36 40 43 43 42 42 42 41 39 37 35 34 34 34 33 34 34 35 37 38 38 39 38 38 37 35 34 33 32 32 33 34 33 33 32 31 30 30 30 31 31 31
33 36 41 43 43 42 41 41 39 37 35 34 34 33 32 31 32 33 35 37 38 39 39 39 38 36 35 34 33 33 34 34 34 34 33 32 31 30 30 30 31 31
30 33 37 41 42 41 41 42 40 39 37 36 35 34 33 32 32 33 34 35 36 38 39 40 39 38 36 35 34 34 34 34 35 35 34 33 32 31 30 30 30 30
Wind_Direction
217 216 217 219 220 221 222 223 223 223 223 221 218 215 214 210 206 207 210 213 216 218 217 219 222 226 229 227 223 214 203 204 215 226 235 237 238 238 237 237 238 229
219 217 218 220 222 222 224 225 226 227 226 225 221 218 217 214 210 212 215 217 220 222 221 221 224 228 232 232 231 226 216 213 215 221 230 235 235 235 232 230 226 219
220 219 219 221 222 224 225 227 228 229 229 226 223 222 223 222 221 222 224 225 227 227 227 226 226 229 233 234 235 234 228 224 223 224 228 230 230 229 224 220 218 216
222 221 221 222 223 225 226 229 230 231 231 229 227 228 231 232 233 234 235 237 237 235 232 231 230 230 233 236 238 239 236 231 229 230 231 229 228 227 221 218 217 218
225 224 223 224 225 226 227 229 232 233 234 234 234 234 236 239 240 240 243 245 245 244 239 236 235 234 233 235 238 240 240 238 235 235 235 233 231 231 226 220 219 222
228 228 227 226 227 227 228 230 233 235 236 238 239 238 239 242 244 245 247 249 250 250 247 243 240 238 236 235 237 240 240 240 240 240 239 237 235 235 232 228 225 228
231 231 230 230 229 229 230 231 233 236 238 240 241 242 243 244 246 249 251 253 254 254 253 250 247 244 241 236 236 239 241 241 243 243 243 242 241 238 236 234 234 236
233 233 233 233 232 231 231 231 232 234 238 240 242 244 245 247 248 251 253 255 256 257 257 255 252 249 247 242 239 239 240 242 243 245 246 245 244 243 241 239 239 241
234 235 235 235 235 234 233 232 232 233 236 238 242 244 246 248 250 251 254 255 256 257 258 257 256 253 250 248 244 241 240 242 243 245 248 248 247 246 246 246 245 245
234 235 236 237 237 237 236 235 234 234 235 236 239 242 245 247 250 251 253 255 255 256 257 258 258 255 252 250 248 245 242 242 243 245 248 250 250 250 249 249 249 249
233 235 236 238 239 240 239 238 237 237 236 237 238 240 242 245 247 250 252 253 254 255 256 258 258 258 256 252 250 248 245 243 244 245 247 249 251 252 252 252 251 251
233 234 236 238 241 242 242 241 240 239 239 239 239 241 242 244 246 249 251 252 254 255 256 258 259 259 258 255 252 250 248 246 245 245 246 248 250 251 252 254 255 254
234 235 236 239 241 243 244 243 243 242 241 241 242 243 244 245 247 249 250 252 253 255 256 258 258 259 258 255 252 251 250 249 248 247 247 247 249 250 250 252 254 256
235 237 238 239 241 243 244 244 243 243 243 243 243 244 245 247 248 249 251 252 254 255 256 257 257 257 256 254 252 250 250 250 249 249 248 248 248 249 250 252 253 254
236 237 239 240 241 242 244 244 244 244 244 244 244 245 246 248 249 250 252 253 254 255 256 256 256 255 254 253 251 249 249 249 249 249 249 249 249 249 250 252 253 254
236 237 239 240 240 242 243 244 245 245 244 245 245 246 247 248 249 251 252 253 254 255 256 256 255 254 253 251 249 248 248 249 250 249 249 249 249 249 248 249 251 254
236 237 239 240 241 242 244 244 245 245 245 246 247 247 247 248 249 250 251 252 254 255 256 256 255 254 253 251 249 248 248 249 249 249 250 250 250 249 247 246 248 252
235 237 238 240 241 242 244 245 245 246 246 246 247 247 248 248 248 249 250 251 252 254 255 256 256 255 254 252 250 249 249 249 250 250 251 251 250 249 247 246 247 250
236 237 238 240 242 243 245 246 246 246 246 246 247 248 248 249 248 249 249 250 250 252 253 254 255 255 253 252 250 249 249 250 251 251 251 251 251 249 248 248 247 249
237 238 239 241 242 244 245 246 246 247 247 248 248 248 247 248 248 248 248 249 249 250 252 253 254 253 252 251 250 249 249 250 251 252 252 252 252 251 249 248 247 247
239 239 240 241 243 244 245 245 246 247 248 249 249 248 247 247 247 247 247 248 249 250 251 252 252 252 251 251 250 248 248 249 250 252 253 253 254 253 251 249 247 247
239 240 241 242 244 244 244 245 246 247 248 250 249 249 248 248 247 247 247 248 248 249 250 251 251 251 251 250 249 248 248 249 250 251 253 254 254 254 253 250 248 247
240 240 241 243 244 244 245 245 246 247 249 250 249 248 248 247 246 246 246 247 248 248 249 250 250 250 250 250 249 248 249 249 249 250 251 253 253 253 253 252 250 248
243 242 241 243 245 246 246 246 247 248 249 250 249 249 249 249 248 248 247 246 246 247 248 249 249 249 249 250 249 249 249 249 249 249 250 251 251 252 252 252 250 249
245 245 243 243 246 248 249 248 249 250 250 250 250 250 250 250 250 248 248 247 247 247 248 249 249 249 249 249 249 248 249 249 249 249 249 249 250 250 250 251 251 251
241 245 246 246 248 251 251 250 250 250 250 250 250 250 250 250 249 248 248 249 248 248 248 248 249 249 249 248 247 247 248 249 249 249 247 247 248 248 249 250 251 251
Height
1559 1562 1564 1565 1567 1569 1571 1572 1574 1576 1577 1579 1580 1581 1582 1584 1585 1586 1587 1588 1589 1590 1591 1592 1593 1593 1594 1595 1595 1596 1597 1597 1598 1599 1599 1600 1600 1601 1602 1602 1603 1603
1557 1560 1562 1564 1565 1567 1569 1571 1573 1575 1576 1578 1579 1580 1582 1583 1585 1586 1587 1588 1589 1590 1591 1591 1592 1593 1594 1595 1595 1596 1596 1597 1598 1598 1599 1599 1600 1601 1601 1602 1603 1603
1554 1557 1559 1561 1563 1565 1568 1570 1572 1573 1575 1577 1578 1580 1581 1583 1584 1585 1586 1587 1588 1589 1590 1591 1592 1593 1593 1594 1595 1595 1596 1597 1598 1598 1598 1599 1600 1601 1601 1602 1602 1603
1552 1554 1557 1559 1561 1564 1566 1568 1570 1572 1573 1575 1577 1579 1580 1581 1583 1584 1585 1587 1588 1589 1590 1590 1591 1592 1593 1593 1594 1595 1596 1597 1598 1598 1598 1599 1600 1600 1601 1602 1602 1603
1549 1552 1554 1557 1559 1562 1564 1565 1567 1569 1571 1573 1575 1577 1578 1580 1581 1583 1584 1585 1586 1588 1589 1590 1590 1591 1592 1593 1593 1594 1595 1596 1597 1598 1598 1599 1599 1600 1601 1602 1602 1603
1547 1549 1552 1554 1556 1559 1561 1563 1565 1567 1568 1571 1573 1575 1576 1578 1579 1581 1582 1584 1585 1586 1587 1588 1589 1590 1591 1592 1592 1593 1594 1595 1596 1597 1597 1598 1599 1600 1600 1601 1602 1602
1544 1547 1549 1552 1554 1556 1558 1560 1562 1564 1566 1568 1570 1572 1574 1576 1577 1579 1580 1582 1583 1585 1586 1587 1588 1589 1590 1591 1591 1592 1593 1594 1595 1596 1597 1597 1598 1599 1599 1600 1601 1601
1542 1544 1547 1549 1552 1553 1555 1557 1559 1561 1564 1566 1567 1569 1572 1573 1575 1577 1578 1580 1581 1583 1584 1585 1586 1588 1589 1589 1590 1591 1592 1593 1594 1594 1595 1596 1597 1598 1599 1599 1600 1600
1539 1541 1544 1547 1549 1550 1552 1554 1556 1559 1561 1563 1565 1567 1569 1571 1572 1574 1576 1577 1579 1580 1582 1583 1585 1586 1587 1588 1589 1589 1590 1591 1592 1593 1594 1595 1596 1597 1598 1598 1599 1599
1536 1538 1541 1543 1545 1547 1549 1552 1554 1556 1558 1560 1562 1564 1566 1568 1570 1572 1573 1575 1577 1578 1580 1581 1582 1584 1585 1586 1587 1588 1589 1590 1591 1592 1593 1594 1594 1595 1596 1597 1598 1598
1533 1535 1537 1539 1542 1544 1547 1549 1551 1553 1555 1557 1559 1561 1563 1565 1567 1569 1571 1572 1574 1576 1577 1579 1580 1581 1583 1584 1585 1586 1587 1588 1589 1590 1591 1592 1593 1594 1595 1596 1596 1597
1529 1532 1534 1536 1539 1541 1543 1546 1548 1550 1552 1554 1556 1558 1560 1562 1564 1566 1567 1569 1571 1573 1574 1576 1577 1579 1580 1581 1583 1584 1585 1586 1587 1588 1589 1590 1591 1592 1593 1594 1595 1595
1525 1528 1530 1533 1536 1538 1541 1543 1545 1547 1549 1551 1553 1555 1557 1559 1561 1562 1564 1566 1568 1570 1571 1573 1575 1576 1577 1579 1580 1582 1583 1584 1585 1587 1588 1588 1589 1590 1591 1592 1593 1593
1522 1525 1528 1530 1533 1535 1537 1539 1541 1544 1545 1547 1550 1551 1553 1555 1557 1559 1561 1563 1565 1566 1568 1570 1571 1573 1574 1576 1578 1579 1580 1582 1583 1584 1585 1586 1587 1588 1589 1590 1591 1591
1520 1522 1525 1527 1530 1532 1534 1536 1538 1540 1542 1544 1546 1547 1549 1552 1554 1556 1557 1559 1561 1563 1565 1567 1568 1569 1571 1573 1575 1576 1578 1579 1580 1582 1583 1584 1585 1586 1587 1588 1588 1589
1517 1519 1522 1524 1526 1528 1530 1533 1535 1537 1539 1540 1542 1544 1546 1548 1550 1552 1553 1555 1557 1559 1561 1563 1564 1566 1568 1569 1571 1573 1574 1576 1577 1578 1580 1581 1582 1583 1584 1585 1586 1587
1514 1516 1519 1521 1523 1525 1527 1529 1532 1534 1535 1537 1539 1540 1542 1544 1546 1548 1549 1551 1553 1555 1557 1558 1560 1562 1564 1566 1568 1569 1571 1572 1574 1575 1577 1578 1579 1580 1581 1582 1583 1584
1511 1514 1516 1518 1520 1522 1524 1526 1529 1530 1532 1533 1535 1537 1539 1541 1542 1544 1546 1548 1550 1551 1553 1554 1556 1559 1561 1562 1564 1566 1568 1569 1570 1572 1573 1574 1576 1577 1578 1579 1580 1581
1508 1510 1512 1515 1517 1519 1521 1523 1525 1526 1528 1530 1531 1533 1535 1537 1538 1540 1542 1544 1546 1547 1549 1551 1553 1555 1557 1559 1560 1562 1564 1565 1566 1568 1569 1571 1572 1573 1575 1576 1577 1578
1505 1507 1509 1511 1514 1516 1518 1520 1521 1523 1524 1526 1528 1530 1531 1532 1534 1536 1538 1540 1542 1543 1545 1547 1549 1551 1553 1555 1556 1558 1560 1561 1563 1564 1566 1567 1568 1569 1571 1572 1573 1574
1502 1503 1506 1508 1510 1513 1514 1516 1518 1519 1521 1523 1525 1526 1527 1529 1530 1532 1534 1536 1538 1540 1541 1543 1544 1547 1549 1551 1552 1554 1556 1558 1559 1560 1562 1563 1565 1566 1567 1568 1569 1570
1500 1501 1502 1505 1507 1509 1510 1512 1514 1516 1518 1520 1521 1522 1524 1525 1526 1528 1530 1532 1534 1536 1537 1538 1540 1543 1545 1546 1548 1550 1552 1554 1555 1557 1558 1559 1561 1562 1563 1564 1565 1566
1500 1500 1500 1502 1504 1505 1507 1508 1510 1512 1515 1516 1518 1519 1520 1521 1522 1524 1525 1527 1529 1531 1532 1534 1536 1538 1540 1542 1544 1546 1548 1550 1551 1553 1554 1555 1557 1558 1559 1560 1561 1562
1496 1500 1500 1500 1501 1502 1503 1505 1507 1509 1511 1512 1514 1515 1515 1517 1518 1520 1521 1523 1524 1526 1528 1529 1531 1533 1536 1538 1540 1542 1544 1545 1547 1549 1550 1551 1553 1554 1555 1556 1557 1558
1490 1496 1499 1499 1498 1499 1501 1502 1504 1506 1507 1509 1510 1511 1512 1514 1515 1516 1517 1518 1519 1521 1523 1524 1526 1529 1532 1534 1536 1538 1540 1541 1543 1545 1546 1547 1549 1550 1551 1551 1552 1554
1483 1488 1493 1495 1496 1497 1498 1499 1501 1502 1504 1505 1506 1508 1509 1510 1511 1512 1512 1514 1515 1517 1518 1519 1521 1524 1527 1529 1531 1533 1535 1537 1539 1540 1542 1543 1544 1546 1547 1547 1548 1549